Dati Storici

Data ora Umidita' aria (%) Temperatura aria (°C) Rad globale (W/m²) Gonioanemometro (°) Tacoanemometro (m/s) Pioggia (mm)
19-06-2020 15:30 46.6 % 26.283 141.023 1.856 0 0
19-06-2020 15:20 46.6 % 25.641 250.644 3.074 0 0
19-06-2020 15:10 44.7 % 26.518 195.96 2.014 0 0
19-06-2020 15:00 45.8 % 25.971 71.538 0.474 0 0
19-06-2020 14:50 47.8 % 25.88 129.601 0.273 0 0
19-06-2020 14:40 46.8 % 26.074 188.773 4.094 0 0
19-06-2020 14:30 48 % 26.146 12.957 2.154 0 0
19-06-2020 14:20 47.8 % 25.483 68.19 0.932 0 0
19-06-2020 14:10 48 % 25.82 126.375 0.651 0 0
19-06-2020 14:00 48.5 % 25.999 140.413 1.91 0 0
19-06-2020 13:50 49 % 26.125 188.421 1.349 0 0
19-06-2020 13:40 48.5 % 25.717 219.446 2.467 0 0
19-06-2020 13:30 49.3 % 25.503 230.977 2.536 0 0
19-06-2020 13:20 49.9 % 25.364 172.255 2.988 0 0
19-06-2020 13:10 49.1 % 25.432 199.611 1.601 0 0
19-06-2020 13:00 49.4 % 25.53 271.735 1.501 0 0
19-06-2020 12:50 46.1 % 25.161 233.723 4.193 0 0
19-06-2020 12:40 47.1 % 25.676 207.182 2.909 0 0
19-06-2020 12:30 48 % 25.251 161.018 2.786 0 0
19-06-2020 12:20 46.7 % 24.976 182.117 3.828 0 0

I dati sono presentati in modo automatico a scopo informativo. In seguito a verifica i dati possono subire modifiche o essere invalidati e non riportati negli archivi definitivi.